This demonstration page uses our WeatherBlox Daily Observations layout. Learn more.

Left ArrowRight Arrow

40.92945, -100.16068

Hourly Observations for November 26, 2018

Temp ( °F °C ) Dew Point ( °F °C ) Humidity (%) Winds ( mph kmh ) Pressure ( in mb ) Visibility ( mi km ) Precip ( " mm )
12:15 am 00:15 Cloudy 29 -1.6 25 -4.1 83 83 NNW 6 9 30.3 1026 10 16.0934 0 0
12:35 am 00:35 Cloudy 28 -2.5 24 -4.6 86 86 N 8 13 30.33 1027 10 16.0934 0 0
12:55 am 00:55 Cloudy 29 -1.8 25 -3.8 86 86 NNW 5 7 30.33 1027 10 16.0934 0 0
1:15 am 01:15 Cloudy 29 -1.5 25 -3.7 85 85 NW 5 7 30.33 1027 10 16.0934 0 0
1:35 am 01:35 Cloudy 28 -2 25 -4.1 86 86 W 3 6 30.3 1026 10 16.0934 0 0
1:55 am 01:55 Cloudy 27 -2.7 24 -4.5 88 88 W 3 6 30.3 1026 10 16.0934 0 0
2:15 am 02:15 Cloudy 27 -2.7 24 -4.4 88 88 W 3 6 30.3 1026 10 16.0934 0 0
2:35 am 02:35 Cloudy 27 -2.6 24 -4.2 89 89 W 5 7 30.3 1026 10 16.0934 0 0
2:55 am 02:55 Cloudy 27 -2.6 24 -4.2 89 89 W 5 7 30.3 1026 10 16.0934 0 0
3:15 am 03:15 Cloudy 26 -3.2 23 -4.8 89 89 NW 5 7 30.3 1026 10 16.0934 0 0
3:35 am 03:35 Cloudy 25 -4 22 -5.4 90 90 W 6 9 30.33 1027 10 16.0934 0 0
3:55 am 03:55 Cloudy with Light Snow 27 -3 24 -4.5 90 90 WNW 5 7 30.3 1026 10 16.0934 0 0
4:15 am 04:15 Cloudy with Light Snow 27 -3 24 -4.5 90 90 WNW 8 13 30.3 1026 7 11.26538 0 0
4:35 am 04:35 Cloudy 26 -3.2 23 -4.9 88 88 NW 7 11 30.3 1026 10 16.0934 0 0
4:55 am 04:55 Mostly Cloudy 25 -4 22 -5.6 89 89 WNW 7 11 30.33 1027 10 16.0934 0 0
5:15 am 05:15 Partly Cloudy 23 -5 20 -6.4 90 90 WNW 9 15 30.33 1027 10 16.0934 0 0
5:35 am 05:35 Clear 22 -5.5 19 -7 89 89 WNW 8 13 30.33 1027 10 16.0934 0 0
5:55 am 05:55 Clear 21 -5.9 19 -7.5 89 89 WNW 7 11 30.33 1027 10 16.0934 0 0
6:15 am 06:15 Clear 20 -6.8 17 -8.4 89 89 NW 7 11 30.36 1028 10 16.0934 0 0
6:35 am 06:35 Partly Cloudy 19 -7.3 16 -8.8 89 89 WNW 7 11 30.36 1028 10 16.0934 0 0
6:55 am 06:55 Cloudy 22 -5.3 19 -7 88 88 WNW 12 19 30.33 1027 10 16.0934 0 0
7:15 am 07:15 Cloudy 23 -5 21 -6.2 91 91 NW 12 19 30.33 1027 7 11.26538 0 0
7:35 am 07:35 Partly Cloudy 21 -6 19 -7.4 90 90 NW 8 13 30.33 1027 10 16.0934 0 0
7:55 am 07:55 Sunny 21 -6.1 17 -8.2 85 85 NW 9 15 30.33 1027 10 16.0934 0 0
8:15 am 08:15 Sunny 21 -6.2 17 -8.5 84 84 WNW 7 11 30.36 1028 10 16.0934 0 0
8:35 am 08:35 Sunny 21 -6 17 -8.1 85 85 WNW 9 15 30.36 1028 10 16.0934 0 0
8:55 am 08:55 Sunny 24 -4.5 19 -7.2 82 82 WNW 15 24 30.36 1028 10 16.0934 0 0
9:15 am 09:15 Sunny 25 -4.1 19 -7 80 80 WNW 14 22 30.36 1028 10 16.0934 0 0
9:35 am 09:35 Sunny 25 -3.7 20 -6.6 81 81 WNW 14 22 30.36 1028 10 16.0934 0 0
9:55 am 09:55 Sunny 26 -3.2 21 -6.1 81 81 WNW 12 19 30.36 1028 10 16.0934 0 0
10:15 am 10:15 Sunny 27 -3 21 -6 80 80 WNW 10 17 30.36 1028 10 16.0934 0 0
10:35 am 10:35 Partly Cloudy 28 -2.3 22 -5.3 80 80 WNW 8 13 30.36 1028 10 16.0934 0 0
10:55 am 10:55 Mostly Cloudy 29 -1.7 23 -4.9 79 79 NW 10 17 30.36 1028 10 16.0934 0 0
11:15 am 11:15 Cloudy 30 -1 25 -4 80 80 WNW 9 15 30.36 1028 10 16.0934 0 0
11:35 am 11:35 Mostly Cloudy 31 -0.6 25 -3.8 79 79 WNW 13 20 30.36 1028 10 16.0934 0 0
11:55 am 11:55 Partly Cloudy 32 0 27 -3 80 80 NW 13 20 30.33 1027 10 16.0934 0 0
12:15 pm 12:15 Mostly Cloudy 33 0.7 28 -2.5 79 79 NW 13 20 30.3 1026 10 16.0934 0 0
12:35 pm 12:35 Cloudy 34 1 28 -2.4 78 78 NW 12 19 30.3 1026 10 16.0934 0 0
12:55 pm 12:55 Cloudy 34 0.9 28 -2.1 81 81 NW 13 20 30.3 1026 10 16.0934 0 0
1:15 pm 13:15 Cloudy 33 0.8 28 -2 82 82 NW 10 17 30.3 1026 10 16.0934 0 0
1:35 pm 13:35 Cloudy 33 0.7 28 -2.1 82 82 NNW 9 15 30.3 1026 10 16.0934 0 0
1:55 pm 13:55 Cloudy 33 0.8 29 -1.9 82 82 NW 13 20 30.3 1026 10 16.0934 0 0
2:15 pm 14:15 Cloudy 33 0.8 28 -2 82 82 NNW 8 13 30.3 1026 10 16.0934 0 0
2:35 pm 14:35 Cloudy 34 1 28 -2.1 80 80 NNW 12 19 30.27 1025 10 16.0934 0 0
2:55 pm 14:55 Cloudy 33 0.8 27 -2.6 78 78 NNW 9 15 30.27 1025 10 16.0934 0 0
3:15 pm 15:15 Cloudy 33 0.8 27 -3 76 76 NNW 10 17 30.27 1025 10 16.0934 0 0
3:35 pm 15:35 Cloudy 33 0.8 27 -2.6 78 78 NNW 10 17 30.27 1025 10 16.0934 0 0
3:55 pm 15:55 Cloudy 34 1 27 -2.7 77 77 NNW 10 17 30.27 1025 10 16.0934 0 0
4:15 pm 16:15 Cloudy 33 0.6 26 -3.1 77 77 N 10 17 30.27 1025 10 16.0934 0 0
4:35 pm 16:35 Cloudy 33 0.5 26 -3.2 77 77 N 7 11 30.27 1025 10 16.0934 0 0
4:55 pm 16:55 Cloudy 33 0.3 27 -3 79 79 N 5 7 30.27 1025 10 16.0934 0 0
5:15 pm 17:15 Cloudy 33 0.3 27 -2.8 80 80 N 3 6 30.27 1025 10 16.0934 0 0
5:35 pm 17:35 Cloudy 32 0.1 27 -2.9 80 80 Calm 30.27 1025 10 16.0934 0 0
5:55 pm 17:55 Cloudy 32 0 27 -2.7 82 82 Calm 30.27 1025 10 16.0934 0 0
6:15 pm 18:15 Cloudy 32 0 28 -2.5 83 83 Calm 30.24 1024 10 16.0934 0 0
6:35 pm 18:35 Cloudy 32 0 28 -2.5 83 83 Calm 30.24 1024 10 16.0934 0 0
6:55 pm 18:55 Cloudy 32 -0.1 28 -2.3 85 85 Calm 30.24 1024 10 16.0934 0 0
7:15 pm 19:15 Cloudy 32 -0.2 28 -2.4 85 85 SW 5 7 30.24 1024 10 16.0934 0 0
7:35 pm 19:35 Cloudy 32 0 27 -2.6 83 83 SSW 3 6 30.24 1024 10 16.0934 0 0
7:55 pm 19:55 Cloudy 32 0 28 -2.5 83 83 Calm 30.24 1024 10 16.0934 0 0
8:15 pm 20:15 Cloudy 32 0 28 -2.5 83 83 Calm 30.24 1024 10 16.0934 0 0
8:35 pm 20:35 Cloudy 32 0 27 -2.6 83 83 WSW 3 6 30.24 1024 10 16.0934 0 0
8:55 pm 20:55 Cloudy 31 -0.3 28 -2.5 85 85 SSW 3 6 30.21 1023 10 16.0934 0 0
9:15 pm 21:15 Cloudy 31 -0.3 27 -2.8 83 83 Calm 30.21 1023 10 16.0934 0 0
9:35 pm 21:35 Partly Cloudy 30 -0.9 27 -3 86 86 W 5 7 30.21 1023 10 16.0934 0 0
9:55 pm 21:55 Clear 29 -1.9 25 -3.8 87 87 W 5 7 30.24 1024 10 16.0934 0 0
10:15 pm 22:15 Clear 27 -2.9 24 -4.2 91 91 NNW 5 7 30.24 1024 10 16.0934 0 0
10:35 pm 22:35 Clear 25 -3.8 23 -5.1 91 91 NNE 5 7 30.24 1024 7 11.26538 0 0
10:55 pm 22:55 Clear 27 -3 25 -4 93 93 Calm 30.24 1024 10 16.0934 0 0
11:15 pm 23:15 Clear 24 -4.2 22 -5.3 92 92 W 3 6 30.24 1024 7 11.26538 0 0
11:35 pm 23:35 Clear 25 -4 23 -5.1 92 92 W 5 7 30.24 1024 10 16.0934 0 0
11:55 pm 23:55 Clear 24 -4.4 22 -5.8 90 90 W 6 9 30.27 1025 10 16.0934 0 0

Powered by AerisWeather